カタログに戻る

EUTE 12 WEST A

AB 1

運用中通信GEO
NORAD 27508·PAYLOAD·🇪🇺 EU

打ち上げ Aug 28, 2002 から Guiana Space Centre

Loading…

TLE

最新Source: Space-Track

元期: Sep 14, 2026, 21:10 UTC

1 27508U 02040A   26257.88230723 -.00000097  00000-0  00000-0 0  9990
2 27508   7.5046  67.4795 0005373  38.6421 316.8826  0.98292977 87525

AllMySatでEUTE 12 WEST Aをリアルタイム追跡

Download on the App Store